Overview Statistics Trail Chart Weather Telemetry Raw packets
 

This is the latest recevied weather packets stored in our database for station/object K1RFS. If no packets are shown the sender has not sent any weather packets the latest 10 day(s).

<< 73 74 75 76 77 78 79 >>
Time Temp. Humidity Pressure Rain* Wind** Luminosity Snow
1788167484 15° C 72% 1003.2 hPa 0 mm - 0 W/m² -
1788167179 15° C 72% 1003.3 hPa 0 mm - 0 W/m² -
1788166875 15° C 71% 1003.4 hPa 0 mm - 0 W/m² -
1788166570 15° C 70% 1003.4 hPa 0 mm - 0 W/m² -
1788166266 15.56° C 68% 1003.3 hPa 0 mm - 0 W/m² -
1788165961 16.11° C 67% 1003.4 hPa 0 mm - 0 W/m² -
1788165657 16.11° C 66% 1003.2 hPa 0 mm - 0 W/m² -
1788165353 16.11° C 66% 1003.3 hPa 0 mm - 0 W/m² -
1788165048 16.11° C 66% 1003.4 hPa 0 mm - 0 W/m² -
1788164747 15.56° C 67% 1003.3 hPa 0 mm - 0 W/m² -
1788164443 15.56° C 68% 1003.2 hPa 0 mm - 0 W/m² -
1788164138 16.11° C 67% 1003.4 hPa 0 mm - 0 W/m² -
1788163834 16.67° C 66% 1003.6 hPa 0 mm - 0 W/m² -
1788163535 16.11° C 67% 1003.7 hPa 0 mm - 0 W/m² -
1788163230 16.11° C 68% 1003.4 hPa 0 mm - 0 W/m² -
1788162925 15.56° C 70% 1003.6 hPa 0 mm - 0 W/m² -
1788162621 15.56° C 70% 1003.7 hPa 0 mm - 0 W/m² -
1788162320 15.56° C 70% 1003.9 hPa 0 mm - 0 W/m² -
1788162015 15.56° C 71% 1003.7 hPa 0 mm - 0 W/m² -
1788161715 15.56° C 70% 1003.7 hPa 0 mm - 0 W/m² -
1788161414 16.11° C 70% 1003.8 hPa 0 mm - 0 W/m² -
1788161109 16.11° C 69% 1003.8 hPa 0 mm - 0 W/m² -
1788160806 16.11° C 69% 1004 hPa 0 mm - 0 W/m² -
1788160504 16.11° C 69% 1003.9 hPa 0 mm - 0 W/m² -
1788160200 16.11° C 68% 1003.9 hPa 0 mm - 0 W/m² -

* Rain latest hour (hover to see other rain measurements)
** Current wind speed in m/s (hover to see current wind gust speed)